Tracking 28794 objects as of 19-Apr-2024
HD Live streaming from Space Station
objects crossing your sky now

COSMOS 252 DEB

Track COSMOS 252 DEB now!
10-day predictions


NORAD ID: 3551
Int'l Code: 1968-097D
Perigee: 541.3 km
Apogee: 1,453.5 km
Inclination: 62.3 °
Period: 104.9 minutes
Semi major axis: 7368 km
RCS: 0.034 m2 (small)
Launch date: November 1, 1968
Source: Commonwealth of Independent States (former USSR) (CIS)
Launch site: TYURATAM MISSILE AND SPACE COMPLEX (TTMTR)

Note: This is SATELLITE DEBRIS
Your satellite tracking list
Your tracking list is empty




NASA's NSSDC Master Catalog

Two Line Element Set (TLE):
1 03551U 68097D   24110.26047176  .00004466  00000-0  12180-2 0  9999
2 03551  62.2935 181.4705 0618996 317.4983  37.9656 13.72607282699854
Source of the keplerian elements: AFSPC